SVA1015 OERK-OEJN

Flight info

Callsign SVA1015
Flight time 1h 26m
Altitude 36000
Route DURMA G782 VEMEM
Aircraft B77W/H-SDE1E2E3FGHIJ2J3J4J5M1RWXY/LB1D1

Departure

Time 2026-04-28 00:34
Airport King Khalid International Airport (OERK)

Arrival

Time 2026-04-28 02:01
Airport King Abdulaziz International Airport (OEJN)
Time Latitude Longitude Altitude Speed Heading
2026-04-28 00:15 24.94359 46.71271 2057 ft 0 kts 240°
2026-04-28 00:26 24.94360 46.71272 2057 ft 1 kts 240°
2026-04-28 00:27 24.94367 46.71286 2057 ft 2 kts 240°
2026-04-28 00:27 24.94375 46.71301 2057 ft 2 kts 240°
2026-04-28 00:27 24.94382 46.71315 2057 ft 2 kts 240°
2026-04-28 00:27 24.94387 46.71324 2057 ft 1 kts 240°
2026-04-28 00:28 24.94395 46.71337 2057 ft 2 kts 221°
2026-04-28 00:28 24.94408 46.71346 2057 ft 2 kts 199°
2026-04-28 00:28 24.94422 46.71349 2057 ft 2 kts 179°
2026-04-28 00:28 24.94437 46.71347 2057 ft 2 kts 159°
2026-04-28 00:29 24.94444 46.71343 2057 ft 1 kts 150°
2026-04-28 00:29 24.94445 46.71342 2057 ft 0 kts 150°
2026-04-28 00:30 24.94445 46.71343 2057 ft 1 kts 150°
2026-04-28 00:30 24.94399 46.71370 2057 ft 13 kts 152°
2026-04-28 00:31 24.94342 46.71404 2057 ft 14 kts 150°
2026-04-28 00:31 24.94271 46.71449 2057 ft 10 kts 150°
2026-04-28 00:31 24.94211 46.71519 2057 ft 14 kts 88°
2026-04-28 00:31 24.94257 46.71634 2057 ft 17 kts 61°
2026-04-28 00:32 24.94316 46.71744 2057 ft 11 kts 59°
2026-04-28 00:32 24.94355 46.71818 2057 ft 10 kts 60°
2026-04-28 00:32 24.94397 46.71900 2057 ft 15 kts 60°
2026-04-28 00:32 24.94462 46.72022 2057 ft 17 kts 60°
2026-04-28 00:33 24.94520 46.72131 2057 ft 15 kts 58°
2026-04-28 00:33 24.94601 46.72156 2057 ft 10 kts 340°
2026-04-28 00:33 24.94643 46.72129 2057 ft 11 kts 328°
2026-04-28 00:33 24.94927 46.71948 2057 ft 87 kts 330°
2026-04-28 00:34 24.95691 46.71466 2058 ft 161 kts 329°
2026-04-28 00:34 24.96775 46.70780 2437 ft 188 kts 330°
2026-04-28 00:34 24.97922 46.70067 3335 ft 193 kts 328°
2026-04-28 00:34 24.99121 46.69406 3900 ft 202 kts 338°
2026-04-28 00:35 25.00510 46.68894 4313 ft 221 kts 339°
2026-04-28 00:35 25.02039 46.68328 4777 ft 239 kts 339°
2026-04-28 00:35 25.03663 46.67712 5267 ft 256 kts 338°
2026-04-28 00:35 25.05391 46.67052 5763 ft 274 kts 338°
2026-04-28 00:36 25.07149 46.66116 6253 ft 285 kts 317°
2026-04-28 00:36 25.08365 46.64444 6937 ft 282 kts 289°
2026-04-28 00:36 25.08760 46.62393 7818 ft 273 kts 266°
2026-04-28 00:36 25.08375 46.60378 8595 ft 271 kts 244°
2026-04-28 00:37 25.07430 46.58625 9412 ft 271 kts 236°
2026-04-28 00:37 25.06380 46.56904 10241 ft 273 kts 236°
2026-04-28 00:37 25.05296 46.55135 10751 ft 288 kts 236°
2026-04-28 00:37 25.04135 46.53242 11245 ft 305 kts 236°
2026-04-28 00:38 25.02920 46.51263 11752 ft 323 kts 236°
2026-04-28 00:38 25.01625 46.49154 12337 ft 338 kts 236°
2026-04-28 00:38 25.00278 46.46960 12955 ft 354 kts 236°
2026-04-28 00:38 24.98874 46.44673 13608 ft 368 kts 236°
2026-04-28 00:39 24.97428 46.42321 14576 ft 375 kts 236°
2026-04-28 00:39 24.95970 46.39951 15712 ft 378 kts 236°
2026-04-28 00:39 24.94513 46.37582 16854 ft 380 kts 237°
2026-04-28 00:39 24.93029 46.35172 17921 ft 384 kts 237°
2026-04-28 00:40 24.91532 46.32740 18956 ft 388 kts 237°
2026-04-28 00:40 24.90027 46.30298 20131 ft 387 kts 237°
2026-04-28 00:40 24.88544 46.27892 21328 ft 385 kts 237°
2026-04-28 00:40 24.87036 46.25447 22419 ft 384 kts 237°
2026-04-28 00:41 24.85546 46.23033 23394 ft 386 kts 237°
2026-04-28 00:41 24.84035 46.20586 24177 ft 393 kts 237°
2026-04-28 00:41 24.82476 46.18061 24897 ft 400 kts 237°
2026-04-28 00:41 24.80923 46.15548 25638 ft 406 kts 237°
2026-04-28 00:42 24.79318 46.12950 26340 ft 413 kts 237°
2026-04-28 00:42 24.77695 46.10326 27066 ft 418 kts 237°
2026-04-28 00:42 24.76061 46.07687 27839 ft 422 kts 237°
2026-04-28 00:42 24.74402 46.05006 28522 ft 428 kts 237°
2026-04-28 00:43 24.72703 46.02264 29143 ft 434 kts 238°
2026-04-28 00:43 24.70999 45.99517 29800 ft 437 kts 237°
2026-04-28 00:43 24.69307 45.96790 30572 ft 435 kts 238°
2026-04-28 00:43 24.67610 45.94057 31413 ft 430 kts 238°
2026-04-28 00:44 24.65942 45.91374 32130 ft 427 kts 238°
2026-04-28 00:44 24.64252 45.88655 32861 ft 428 kts 239°
2026-04-28 00:44 24.62579 45.85963 33586 ft 429 kts 239°
2026-04-28 00:44 24.60895 45.83258 34425 ft 427 kts 238°
2026-04-28 00:45 24.59246 45.80608 35311 ft 424 kts 238°
2026-04-28 00:45 24.57578 45.77931 35898 ft 427 kts 238°
2026-04-28 00:45 24.55909 45.75252 35924 ft 428 kts 239°
2026-04-28 00:46 24.52560 45.69884 35937 ft 423 kts 238°
2026-04-28 00:46 24.49207 45.64513 35942 ft 424 kts 238°
2026-04-28 00:47 24.45807 45.59074 35942 ft 424 kts 239°
2026-04-28 00:47 24.42483 45.53762 35943 ft 424 kts 239°
2026-04-28 00:48 24.39140 45.48425 35945 ft 426 kts 238°
2026-04-28 00:48 24.35759 45.43034 35944 ft 425 kts 238°
2026-04-28 00:49 24.32409 45.37700 35945 ft 424 kts 238°
2026-04-28 00:49 24.29027 45.32318 35970 ft 424 kts 238°
2026-04-28 00:50 24.25684 45.27005 35970 ft 425 kts 238°
2026-04-28 00:50 24.22339 45.21695 35971 ft 424 kts 238°
2026-04-28 00:51 24.18970 45.16351 35982 ft 425 kts 238°
2026-04-28 00:51 24.15774 45.10892 35985 ft 422 kts 245°
2026-04-28 00:52 24.13171 45.05125 35991 ft 423 kts 245°
2026-04-28 00:52 24.10576 44.99358 35998 ft 421 kts 245°
2026-04-28 00:53 24.07976 44.93591 35999 ft 425 kts 245°
2026-04-28 00:53 24.05368 44.87819 36002 ft 423 kts 245°
2026-04-28 00:54 24.02751 44.82037 36001 ft 421 kts 245°
2026-04-28 00:54 24.00126 44.76244 36007 ft 423 kts 245°
2026-04-28 00:55 23.97507 44.70472 36005 ft 424 kts 245°
2026-04-28 00:55 23.94897 44.64727 36010 ft 423 kts 245°
2026-04-28 00:56 23.92486 44.58893 36006 ft 423 kts 253°
2026-04-28 00:56 23.91086 44.52638 36006 ft 422 kts 256°
2026-04-28 00:57 23.89760 44.46387 36008 ft 422 kts 257°
2026-04-28 00:57 23.88435 44.40161 36007 ft 422 kts 256°
2026-04-28 00:58 23.87098 44.33901 36008 ft 422 kts 256°
2026-04-28 00:58 23.85772 44.27705 36008 ft 422 kts 256°
2026-04-28 00:59 23.84435 44.21476 36003 ft 422 kts 256°
2026-04-28 00:59 23.83100 44.15268 36002 ft 421 kts 256°
2026-04-28 01:00 23.81745 44.08980 35999 ft 422 kts 256°
2026-04-28 01:00 23.80406 44.02782 35999 ft 422 kts 256°
2026-04-28 01:01 23.79054 43.96538 35998 ft 421 kts 256°
2026-04-28 01:01 23.77706 43.90324 35999 ft 421 kts 256°
2026-04-28 01:02 23.76346 43.84089 35999 ft 422 kts 256°
2026-04-28 01:02 23.74989 43.77904 35998 ft 420 kts 256°
2026-04-28 01:03 23.73626 43.71702 36000 ft 421 kts 256°
2026-04-28 01:03 23.72266 43.65523 36002 ft 420 kts 256°
2026-04-28 01:04 23.70900 43.59333 35998 ft 420 kts 256°
2026-04-28 01:04 23.69536 43.53162 35997 ft 420 kts 256°
2026-04-28 01:05 23.68164 43.46967 35995 ft 419 kts 257°
2026-04-28 01:05 23.66795 43.40799 35996 ft 418 kts 256°
2026-04-28 01:06 23.65423 43.34628 35997 ft 419 kts 256°
2026-04-28 01:06 23.64048 43.28456 36011 ft 418 kts 256°
2026-04-28 01:07 23.62678 43.22322 36012 ft 418 kts 256°
2026-04-28 01:07 23.61306 43.16189 36019 ft 418 kts 256°
2026-04-28 01:08 23.59922 43.10013 36018 ft 417 kts 256°
2026-04-28 01:08 23.58548 43.03895 36028 ft 418 kts 256°
2026-04-28 01:09 23.57166 42.97751 36023 ft 417 kts 256°
2026-04-28 01:09 23.55785 42.91628 36022 ft 416 kts 256°
2026-04-28 01:10 23.54398 42.85490 36018 ft 418 kts 257°
2026-04-28 01:10 23.53017 42.79384 36017 ft 418 kts 256°
2026-04-28 01:11 23.51624 42.73243 36015 ft 417 kts 256°
2026-04-28 01:11 23.50235 42.67124 36014 ft 418 kts 256°
2026-04-28 01:12 23.48841 42.60995 36016 ft 416 kts 256°
2026-04-28 01:12 23.47444 42.54868 36012 ft 417 kts 256°
2026-04-28 01:13 23.46057 42.48795 36011 ft 416 kts 257°
2026-04-28 01:13 23.43958 42.39624 36013 ft 416 kts 256°
2026-04-28 01:14 23.42555 42.33514 36026 ft 418 kts 256°
2026-04-28 01:14 23.41153 42.27412 36031 ft 416 kts 256°
2026-04-28 01:15 23.39745 42.21303 36026 ft 416 kts 256°
2026-04-28 01:15 23.38339 42.15207 36021 ft 417 kts 256°
2026-04-28 01:16 23.36928 42.09106 36024 ft 418 kts 257°
2026-04-28 01:16 23.35506 42.02969 36016 ft 416 kts 256°
2026-04-28 01:17 23.34094 41.96885 36016 ft 417 kts 256°
2026-04-28 01:17 23.32679 41.90798 36016 ft 416 kts 256°
2026-04-28 01:18 23.31262 41.84716 36017 ft 417 kts 256°
2026-04-28 01:18 23.29838 41.78615 36022 ft 416 kts 256°
2026-04-28 01:19 23.28261 41.72572 36012 ft 416 kts 249°
2026-04-28 01:19 23.25376 41.67046 36020 ft 423 kts 241°
2026-04-28 01:20 23.22220 41.61687 36023 ft 421 kts 240°
2026-04-28 01:20 23.19066 41.56347 36029 ft 422 kts 241°
2026-04-28 01:21 23.15895 41.50985 36031 ft 422 kts 241°
2026-04-28 01:21 23.12712 41.45610 36031 ft 421 kts 240°
2026-04-28 01:22 23.09544 41.40265 36029 ft 420 kts 240°
2026-04-28 01:22 23.06359 41.34898 36026 ft 423 kts 240°
2026-04-28 01:23 23.03184 41.29554 36046 ft 423 kts 240°
2026-04-28 01:23 22.99991 41.24184 36044 ft 423 kts 240°
2026-04-28 01:24 22.96800 41.18825 36041 ft 423 kts 240°
2026-04-28 01:24 22.93607 41.13466 36039 ft 423 kts 240°
2026-04-28 01:25 22.90423 41.08129 36029 ft 423 kts 240°
2026-04-28 01:25 22.87194 41.02721 36028 ft 425 kts 240°
2026-04-28 01:26 22.83998 40.97377 36031 ft 424 kts 240°
2026-04-28 01:26 22.80789 40.92020 36030 ft 424 kts 240°
2026-04-28 01:27 22.77557 40.86629 36026 ft 424 kts 240°
2026-04-28 01:27 22.74364 40.81309 36024 ft 421 kts 240°
2026-04-28 01:28 22.71160 40.75977 36023 ft 426 kts 241°
2026-04-28 01:28 22.67939 40.70621 35932 ft 418 kts 240°
2026-04-28 01:29 22.66369 40.68014 35205 ft 417 kts 241°
2026-04-28 01:29 22.64797 40.65404 34456 ft 415 kts 240°
2026-04-28 01:29 22.63213 40.62775 33859 ft 410 kts 241°
2026-04-28 01:29 22.61671 40.60218 33306 ft 405 kts 242°
2026-04-28 01:30 22.60155 40.57706 32554 ft 399 kts 242°
2026-04-28 01:30 22.58647 40.55209 31985 ft 390 kts 242°
2026-04-28 01:30 22.57192 40.52799 31348 ft 383 kts 242°
2026-04-28 01:30 22.55746 40.50404 30584 ft 377 kts 242°
2026-04-28 01:31 22.54329 40.48059 29766 ft 373 kts 241°
2026-04-28 01:31 22.52936 40.45751 28950 ft 369 kts 241°
2026-04-28 01:31 22.51547 40.43455 28223 ft 362 kts 241°
2026-04-28 01:31 22.50185 40.41202 27531 ft 356 kts 240°
2026-04-28 01:32 22.48853 40.39001 26814 ft 351 kts 240°
2026-04-28 01:32 22.47529 40.36813 26051 ft 347 kts 240°
2026-04-28 01:32 22.46219 40.34649 25330 ft 341 kts 239°
2026-04-28 01:32 22.44923 40.32511 24849 ft 338 kts 239°
2026-04-28 01:33 22.43653 40.30415 24465 ft 334 kts 238°
2026-04-28 01:33 22.42382 40.28319 24047 ft 331 kts 238°
2026-04-28 01:33 22.41135 40.26262 23544 ft 330 kts 238°
2026-04-28 01:33 22.39874 40.24184 23104 ft 328 kts 238°
2026-04-28 01:34 22.38645 40.22160 22723 ft 323 kts 238°
2026-04-28 01:34 22.37415 40.20135 22286 ft 320 kts 238°
2026-04-28 01:34 22.36191 40.18121 21711 ft 322 kts 238°
2026-04-28 01:34 22.34975 40.16120 21150 ft 323 kts 237°
2026-04-28 01:35 22.33745 40.14098 20671 ft 321 kts 238°
2026-04-28 01:35 22.32519 40.12083 20169 ft 321 kts 238°
2026-04-28 01:35 22.31293 40.10067 19631 ft 321 kts 238°
2026-04-28 01:35 22.30075 40.08067 19067 ft 323 kts 238°
2026-04-28 01:36 22.28840 40.06038 18538 ft 324 kts 237°
2026-04-28 01:36 22.27595 40.03994 18050 ft 323 kts 237°
2026-04-28 01:36 22.26362 40.01971 17585 ft 322 kts 237°
2026-04-28 01:36 22.25140 39.99968 17183 ft 319 kts 237°
2026-04-28 01:37 22.23937 39.97996 17069 ft 318 kts 237°
2026-04-28 01:37 22.22702 39.95972 17047 ft 321 kts 237°
2026-04-28 01:37 22.21474 39.93961 17033 ft 321 kts 237°
2026-04-28 01:37 22.20252 39.91960 17011 ft 322 kts 237°
2026-04-28 01:38 22.19017 39.89940 17001 ft 321 kts 237°
2026-04-28 01:38 22.17779 39.87913 16987 ft 321 kts 237°
2026-04-28 01:38 22.16551 39.85906 16958 ft 316 kts 237°
2026-04-28 01:38 22.15355 39.83950 16555 ft 314 kts 237°
2026-04-28 01:39 22.14144 39.81970 15928 ft 319 kts 237°
2026-04-28 01:39 22.12919 39.79970 15408 ft 320 kts 237°
2026-04-28 01:39 22.11706 39.77988 15040 ft 315 kts 237°
2026-04-28 01:39 22.10511 39.76038 14938 ft 313 kts 237°
2026-04-28 01:40 22.09306 39.74071 14923 ft 316 kts 237°
2026-04-28 01:40 22.08087 39.72083 14912 ft 317 kts 237°
2026-04-28 01:40 22.06859 39.70121 14879 ft 311 kts 232°
2026-04-28 01:40 22.05370 39.68497 14725 ft 301 kts 220°
2026-04-28 01:41 22.03590 39.67405 14694 ft 289 kts 205°
2026-04-28 01:41 22.01735 39.66647 14536 ft 281 kts 204°
2026-04-28 01:41 21.99895 39.65917 14156 ft 282 kts 203°
2026-04-28 01:41 21.98070 39.65194 13732 ft 283 kts 203°
2026-04-28 01:42 21.96220 39.64462 13387 ft 281 kts 203°
2026-04-28 01:42 21.94377 39.63733 13067 ft 279 kts 202°
2026-04-28 01:42 21.92560 39.63014 12694 ft 278 kts 202°
2026-04-28 01:42 21.90741 39.62295 12340 ft 277 kts 202°
2026-04-28 01:43 21.88930 39.61579 11988 ft 276 kts 202°
2026-04-28 01:43 21.87145 39.60874 11663 ft 275 kts 202°
2026-04-28 01:43 21.85371 39.60174 11582 ft 262 kts 202°
2026-04-28 01:43 21.83693 39.59513 11468 ft 251 kts 202°
2026-04-28 01:44 21.82051 39.58865 11135 ft 249 kts 202°
2026-04-28 01:44 21.80426 39.58223 10755 ft 250 kts 202°
2026-04-28 01:44 21.78786 39.57576 10427 ft 248 kts 202°
2026-04-28 01:44 21.77175 39.56939 10059 ft 249 kts 202°
2026-04-28 01:45 21.75550 39.56298 9703 ft 249 kts 202°
2026-04-28 01:45 21.73918 39.55655 9412 ft 246 kts 202°
2026-04-28 01:45 21.72314 39.55022 9047 ft 248 kts 202°
2026-04-28 01:45 21.70674 39.54375 8675 ft 248 kts 202°
2026-04-28 01:46 21.69072 39.53744 8384 ft 246 kts 202°
2026-04-28 01:46 21.67458 39.53108 8011 ft 247 kts 202°
2026-04-28 01:46 21.65830 39.52467 7670 ft 247 kts 202°
2026-04-28 01:46 21.64208 39.51827 7343 ft 247 kts 202°
2026-04-28 01:47 21.62604 39.51196 6988 ft 248 kts 202°
2026-04-28 01:47 21.60978 39.50555 6655 ft 248 kts 202°
2026-04-28 01:47 21.59354 39.49916 6338 ft 247 kts 202°
2026-04-28 01:47 21.57745 39.49283 6001 ft 248 kts 202°
2026-04-28 01:48 21.56096 39.48634 5645 ft 250 kts 202°
2026-04-28 01:48 21.54461 39.47990 5382 ft 248 kts 201°
2026-04-28 01:48 21.52829 39.47349 5143 ft 251 kts 202°
2026-04-28 01:48 21.51190 39.46704 4905 ft 251 kts 201°
2026-04-28 01:49 21.49544 39.46057 4667 ft 251 kts 201°
2026-04-28 01:49 21.47900 39.45412 4423 ft 250 kts 201°
2026-04-28 01:49 21.46261 39.44768 4179 ft 250 kts 202°
2026-04-28 01:49 21.44612 39.44120 3938 ft 251 kts 201°
2026-04-28 01:50 21.42969 39.43475 3700 ft 251 kts 201°
2026-04-28 01:50 21.41324 39.42829 3456 ft 248 kts 202°
2026-04-28 01:50 21.39723 39.42202 3221 ft 239 kts 202°
2026-04-28 01:50 21.38188 39.41600 2986 ft 232 kts 202°
2026-04-28 01:51 21.36673 39.41005 2751 ft 230 kts 202°
2026-04-28 01:51 21.35301 39.40197 2516 ft 226 kts 224°
2026-04-28 01:51 21.34362 39.38864 2263 ft 223 kts 248°
2026-04-28 01:51 21.33760 39.37339 2130 ft 218 kts 253°
2026-04-28 01:52 21.33221 39.35830 2113 ft 218 kts 254°
2026-04-28 01:52 21.32830 39.34271 2112 ft 213 kts 270°
2026-04-28 01:52 21.33002 39.32771 2102 ft 197 kts 291°
2026-04-28 01:52 21.33694 39.31611 2105 ft 183 kts 319°
2026-04-28 01:53 21.34699 39.30795 2111 ft 178 kts 331°
2026-04-28 01:53 21.35792 39.30178 2112 ft 175 kts 337°
2026-04-28 01:53 21.36905 39.29667 2109 ft 174 kts 340°
2026-04-28 01:53 21.38045 39.29195 2107 ft 172 kts 341°
2026-04-28 01:54 21.39159 39.28756 2117 ft 171 kts 342°
2026-04-28 01:54 21.40298 39.28318 2110 ft 172 kts 342°
2026-04-28 01:54 21.41434 39.27886 2105 ft 173 kts 342°
2026-04-28 01:54 21.42575 39.27449 2107 ft 173 kts 342°
2026-04-28 01:55 21.43713 39.27011 2103 ft 173 kts 342°
2026-04-28 01:55 21.44853 39.26569 2106 ft 173 kts 342°
2026-04-28 01:55 21.45983 39.26129 2108 ft 173 kts 342°
2026-04-28 01:55 21.47124 39.25684 2105 ft 173 kts 342°
2026-04-28 01:56 21.48256 39.25241 2111 ft 174 kts 342°
2026-04-28 01:56 21.49397 39.24794 2110 ft 173 kts 342°
2026-04-28 01:56 21.50534 39.24350 2108 ft 172 kts 342°
2026-04-28 01:56 21.51648 39.23915 2106 ft 171 kts 342°
2026-04-28 01:57 21.52774 39.23474 2108 ft 171 kts 342°
2026-04-28 01:57 21.53909 39.23030 2108 ft 171 kts 342°
2026-04-28 01:57 21.55023 39.22594 2108 ft 171 kts 342°
2026-04-28 01:57 21.56147 39.22154 2108 ft 171 kts 342°
2026-04-28 01:58 21.57287 39.21708 1931 ft 171 kts 342°
2026-04-28 01:58 21.58397 39.21273 1716 ft 171 kts 342°
2026-04-28 01:58 21.59524 39.20833 1504 ft 171 kts 342°
2026-04-28 01:58 21.60617 39.20405 1285 ft 160 kts 341°
2026-04-28 01:59 21.61616 39.20016 1071 ft 146 kts 342°
2026-04-28 01:59 21.62542 39.19665 870 ft 139 kts 341°
2026-04-28 01:59 21.63450 39.19307 711 ft 136 kts 341°
2026-04-28 01:59 21.64343 39.18952 539 ft 138 kts 340°
2026-04-28 02:00 21.65247 39.18598 363 ft 138 kts 341°
2026-04-28 02:00 21.66158 39.18244 192 ft 139 kts 340°
2026-04-28 02:00 21.67074 39.17881 63 ft 131 kts 340°
2026-04-28 02:00 21.67803 39.17596 62 ft 89 kts 339°
2026-04-28 02:01 21.68231 39.17427 62 ft 49 kts 340°
2026-04-28 02:01 21.68483 39.17328 62 ft 31 kts 340°
2026-04-28 02:01 21.68683 39.17250 62 ft 29 kts 339°
2026-04-28 02:01 21.68834 39.17136 62 ft 24 kts 311°
2026-04-28 02:02 21.68929 39.17017 62 ft 19 kts 308°
2026-04-28 02:02 21.68918 39.16935 62 ft 10 kts 194°
2026-04-28 02:02 21.68838 39.16950 62 ft 13 kts 159°
2026-04-28 02:02 21.68715 39.16999 62 ft 19 kts 160°
2026-04-28 02:03 21.68598 39.17044 62 ft 15 kts 160°
2026-04-28 02:03 21.68476 39.17092 62 ft 22 kts 159°
2026-04-28 02:03 21.68318 39.17155 62 ft 25 kts 159°
2026-04-28 02:03 21.68147 39.17223 62 ft 25 kts 160°
2026-04-28 02:04 21.67982 39.17288 62 ft 24 kts 160°
2026-04-28 02:04 21.67825 39.17349 62 ft 23 kts 160°
2026-04-28 02:04 21.67674 39.17409 62 ft 22 kts 160°
2026-04-28 02:04 21.67547 39.17459 62 ft 20 kts 159°
2026-04-28 02:05 21.67401 39.17517 62 ft 21 kts 160°
2026-04-28 02:05 21.67284 39.17558 62 ft 14 kts 181°
2026-04-28 02:05 21.67216 39.17493 62 ft 13 kts 246°
2026-04-28 02:05 21.67203 39.17421 62 ft 8 kts 281°
2026-04-28 02:06 21.67229 39.17376 62 ft 2 kts 311°
2026-04-28 02:06 21.67232 39.17372 62 ft 0 kts 311°
2026-04-28 02:06 21.67246 39.17355 62 ft 3 kts 311°
2026-04-28 02:06 21.67249 39.17352 62 ft 0 kts 311°
2026-04-28 02:07 21.67254 39.17345 62 ft 2 kts 310°
2026-04-28 02:07 21.67258 39.17341 62 ft 1 kts 310°
2026-04-28 02:07 21.67260 39.17338 62 ft 0 kts 310°